P/2008 J2 (Beshore)

Epoch 2008 Apr. 4.0 TT = JDT 2454560.5  

T 2008 Mar. 20.84447 TT                                 Nakano

q   2.4102212            (2000.0)            P               Q

n   0.15178688     Peri.  131.80648     -0.62955566     +0.75666390

a   3.4805395      Node    98.29938     -0.75519786     -0.54258884

e   0.3075151      Incl.   10.26924     -0.18258114     -0.36476992

P   6.49 (+/- 0.02 day)

From 473 observations 2008 May 6-Aug. 3, mean residual 0".55.

Residuals in seconds of arc 

2008/                     080511 349  0.0   0.1+    080601 056  0.2+  0.4-  

080506 G96  0.4-  0.5-    080511 017  0.5+  0.4-    080601 J39  0.2+  0.2+  

080506 G96  0.6-  0.4-    080511 017  0.0   0.3-    080601 J39 (0.7+  2.4-) 

080506 G96  0.4-  0.5-    080511 017  0.1+  0.3-    080602 E85  0.0   0.4-  

080506 G96  0.1-  0.4-    080511 J51  0.4-  0.9+    080602 E85  0.0   0.4+  

080506 F85  0.1+  0.3-    080511 J51  0.5+  0.6+    080602 E85  0.1+  0.2-  

080506 423  0.1+  0.0     080511 945  0.3-  0.5+    080602 A97  1.8-  0.6-  

080506 474  0.1+  0.1-    080511 J51  0.8-  0.0     080602 A97  1.4-  1.1-  

080506 423  0.1-  0.1-    080511 017  0.3+  0.3-    080602 A97  1.3-  0.7+  

080506 474  0.3+  0.0     080511 945  0.9-  0.9+    080603 945  0.3+  0.2-  

080506 F85  0.3+  0.2-    080511 945  0.5-  0.2+    080603 945  0.8-  0.8+  

080506 423  0.3+  0.4-    080511 017  0.0   0.5-    080603 945  0.1-  0.3-  

080506 474  0.2+  0.0     080511 945  0.2-  0.3+    080603 945  0.1-  0.2+  

080506 F85  0.4+  0.3-    080511 056  0.1+  0.1-    080603 J38  0.4-  0.6-  

080506 900  0.5+  0.4-    080511 945  1.2-  0.0     080603 J38  0.0   0.2-  

080506 900  0.3+  0.2-    080511 017  0.1-  0.7-    080603 J38  1.4-  0.1-  

080506 900  0.0   0.1+    080512 056  0.3+  0.2-    080605 J40  1.6+  1.1-  

080506 900  0.2+  0.1-    080512 056  0.1+  0.2-    080605 J24  1.1+  0.6+  

080506 900  0.2+  0.1-    080512 056  0.2+  1.8-    080605 J24  0.4+  0.4+  

080506 300  0.2+  0.2-    080512 J24  0.3-  0.0     080605 J24  0.1+  1.3+  

080506 300  0.2+  0.2-    080512 J24  0.2+  0.2+    080606 900  1.9+  0.6-  

080506 300  0.2+  0.2-    080512 J24  0.3+  0.3+    080606 900  1.7-  0.6-  

080506 300  0.1+  0.1-    080512 423 (0.1+  2.1-)   080606 585  1.4+  0.5+  

080506 104  0.2+  0.4+    080512 423  0.3-  0.7+    080606 585  0.8+  0.2+  

080506 595  0.0   0.4+    080512 367  0.5-  0.3+    080606 585 (2.0+  0.1+) 

080506 595  0.3+  0.1+    080512 367  0.6-  0.4+    080606 585 (2.3+  0.4+) 

080506 104  0.2+  0.3+    080512 367  0.5-  0.2+    080606 585  0.8+  1.0-  

080506 104  0.2+  0.1-    080513 017  0.1-  0.3-    080606 939  0.9-  1.4-  

080506 B68  0.1-  0.0     080513 017  0.4+  0.2-    080606 939  1.2-  0.5-  

080506 A55  0.2+  0.2+    080513 017  0.0   0.2-    080606 939  1.6-  0.2+  

080506 J95  0.1-  0.2+    080513 510  0.1+  0.4+    080607 J45  0.5+  0.8+  

080506 J95  0.1+  0.3-    080513 017  0.0   0.1-    080607 J39 (7.2-  9.2-) 

080506 A55  0.3+  0.1+    080513 510  0.5-  0.1-    080607 J39 (5.8-  7.9-) 

080506 510  0.0   1.0+    080513 017  0.1+  0.1-    080607 J39 (4.4-  7.4-) 

080506 J95  0.0   0.1-    080513 510  0.1-  0.2+    080608 J45 (4.3-  7.9-) 

080506 J95  0.1+  0.3-    080513 017  0.7-  0.0     080608 J39 (1.9-  6.4-) 

080506 B68  0.2-  0.2-    080513 J24  0.3-  0.4+    080608 J45 (1.3+  5.3-) 

080506 B20  0.5+  1.0+    080513 J40  0.1+  0.7-    080608 J47  0.2+  0.1+  

080506 A55  0.2+  0.2+    080513 J40  0.2+  0.3-    080608 J47  0.2+  1.3-  

080506 B20  0.3+  0.8+    080513 J40  0.2-  0.0     080608 J47  0.1+  0.2-  

080506 510  0.6+  0.9+    080513 J40  0.2-  0.0     080608 673  0.6+  0.1+  

080506 B20  0.2+  0.4+    080513 J24  0.1-  0.4+    080608 673  0.6+  0.0   

080506 510  0.1+  1.0+    080513 J24  0.1+  0.4+    080608 673  0.5+  0.2-  

080506 510  0.1-  0.5+    080513 H06  0.9-  0.6-    080608 673  1.0+  0.1-  

080507 204  0.1+  0.1-    080513 H06  0.6-  0.5-    080608 J51  0.9+  0.2+  

080507 204  0.3+  0.1+    080513 213  0.2-  1.2+    080608 J51  0.1+  0.2+  

080507 198  0.5+  0.3+    080513 213  0.2-  0.9+    080608 J51  0.2+  0.6+  

080507 198  0.3+  0.2+    080513 213  0.8-  0.2-    080609 349  1.1-  0.2+  

080507 198  0.6+  0.2+    080513 B51  0.3-  0.0     080609 349  1.0-  0.0   

080507 118  0.3+  0.0     080513 B66  0.2+  0.3+    080609 J47  0.1-  0.4+  

080507 I77  0.4-  0.1-    080514 B66  0.1+  1.0+    080609 J47  0.0   0.0   

080507 118  0.4+  0.1+    080514 H06  0.0   0.5+    080609 J47  0.3+  0.4+  

080507 I77  0.0   0.1-    080514 H06  0.2+  0.5-    080610 J45  1.7+  0.2+  

080507 118  0.4+  0.0     080514 423  0.2-  0.0     080610 J45  1.6+  0.4+  

080507 I77  0.0   0.3-    080514 423  0.8-  0.6-    080610 E85  0.2+  0.0   

080507 204  0.3+  0.1+    080514 367  0.8-  0.1+    080610 E85  0.2-  0.0   

080507 844  0.4+  0.0     080514 367  1.1-  0.1-    080610 E85  0.2+  0.3-  

080507 854  0.4-  0.0     080514 367  1.0-  0.0     080611 J51  0.1-  0.1-  

080507 854  0.4-  0.1+    080514 349  0.7-  0.2+    080611 J51  0.4-  0.0   

080507 844  0.1+  0.5-    080514 349  0.6-  0.2+    080611 J51  0.7-  0.4-  

080507 844  0.1+  0.3-    080514 349  0.7-  0.1-    080612 J24  0.6-  1.1+  

080507 854  0.3-  0.0     080514 900 (2.2-  0.2-)   080612 J24  0.6-  1.3+  

080507 844  0.2+  0.2-    080514 900  0.6-  0.0     080612 J24  0.6-  0.5+  

080507 854  0.1+  0.1+    080514 A97  1.3-  0.7+    080612 808  1.1+  0.9-  

080507 854  0.2-  0.1-    080514 585  1.1+  0.4+    080612 808  1.8+  0.2+  

080507 854  0.2-  0.1-    080514 585  0.5+  0.2+    080612 808  0.3-  0.5-  

080507 673  0.5+  0.0     080514 585  0.7+  0.3+    080612 900  0.1-  0.1-  

080507 673  0.4+  0.0     080514 585  0.2+  0.0     080612 900  0.1+  0.1+  

080507 673  0.0   0.0     080514 A97 (2.3-  0.1-)   080612 372  0.7-  0.5-  

080507 673  0.4+  0.2-    080514 585  0.1+  0.8+    080612 372  0.5+  0.2+  

080507 H06  0.2+  0.5-    080514 A97 (2.9-  1.0-)   080612 372  0.6-  0.6+  

080507 H06  0.4+  0.8-    080515 423  1.1-  0.5-    080613 808  0.4+  0.2+  

080507 H10  0.2+  0.2-    080515 423  0.7-  0.5-    080613 808  0.7-  0.0   

080507 G96  0.3-  0.3-    080515 900  0.1-  0.4-    080613 808  0.2+  0.0   

080507 G96  1.0-  0.5-    080515 900  0.2-  0.1-    080620 E85  1.1+  1.3-  

080507 G96  0.5-  0.4-    080516 423  0.7-  0.2-    080620 E85 (2.0-  1.1-) 

080507 G96  1.1-  0.6-    080516 423  1.0-  0.3-    080620 E85  0.7-  0.1-  

080507 F85  0.2+  0.5-    080516 367  0.4-  0.2-    080620 J51  0.6-  0.6+  

080507 F85  0.3+  0.5-    080516 367  0.0   0.3-    080620 J51  0.6-  0.3+  

080507 104  0.3+  0.1-    080516 367  0.8-  0.2-    080620 J51  1.2-  0.0   

080507 213  0.1+  0.2+    080516 585 (1.5+  2.7+)   080621 J79  0.4+  0.2+  

080507 213  0.3-  0.2+    080516 585  0.3+  0.2+    080621 213  0.6+  0.4+  

080507 213  0.8-  0.1-    080516 585  0.5+  0.5-    080621 213  1.0-  0.7-  

080507 104  0.3-  0.0     080516 585  1.1+  0.3-    080621 J79  0.8-  0.2+  

080507 104  0.3-  0.1-    080516 585  0.7+  0.4-    080621 J79  0.7-  0.6+  

080507 585  0.0   0.3-    080517 H47  0.2+  0.2+    080621 A06  0.5-  0.1-  

080507 585  0.7+  0.5-    080517 H47  1.0+  0.1+    080621 A06  1.5+  0.7-  

080507 585  0.9+  0.4-    080518 J24  0.2-  0.6+    080621 585  1.2+  0.0   

080507 215  0.0   0.1+    080518 J24  0.6+  0.9+    080622 585  0.4+  0.8-  

080507 215  0.0   0.1+    080518 J24  0.1+  0.4+    080622 A06  0.2-  0.0   

080507 585  0.9+  0.8-    080518 E85  0.5-  0.5-    080622 J47  0.5-  0.6+  

080507 215  0.1-  0.1+    080518 E85  0.5-  1.1-    080622 J47  1.3-  0.3-  

080507 585  0.6+  0.3-    080518 E85  0.0   0.4-    080622 J47  0.8-  1.2-  

080507 A97  0.5-  0.3-    080519 H51  0.2+  0.7+    080622 585  0.7+  0.3-  

080507 585  0.2+  0.7-    080519 H51  0.2-  0.2+    080622 585  0.7-  1.5+  

080507 A97  0.5-  0.6-    080519 H51  0.1-  0.9+    080622 585  0.7+  0.7+  

080507 A97  0.8-  0.5-    080519 H51  0.8+  0.4+    080623 372  0.3-  1.5+  

080508 510  0.2+  0.3-    080519 H51  1.1+  0.9+    080623 372  0.4+  0.9-  

080508 510  0.3+  0.1-    080519 673  0.7+  0.2+    080623 204  0.2-  1.0-  

080508 510  0.1+  0.1-    080519 673  0.4+  0.3-    080623 204  0.5-  0.7-  

080508 A77  0.1+  0.3+    080519 673  1.1+  0.0     080624 J39 (2.1-  0.4-) 

080508 J95  0.3+  0.0     080519 673  1.1+  0.3-    080624 J51  0.4-  0.1-  

080508 J95  0.5-  0.2-    080520 900  0.3-  0.5+    080624 J51  0.4-  0.0   

080508 J95  0.0   0.2-    080520 900  1.0+  0.4+    080624 J51  0.6-  0.1+  

080508 J95  0.1+  0.3-    080520 349 (2.3-  0.8+)   080625 415  0.5-  1.2-  

080508 A77  0.1-  0.3+    080520 349 (2.0-  0.5+)   080625 585  0.4+  0.1+  

080508 J24  0.4+  0.3+    080523 J51  0.3-  0.1+    080625 585  0.1+  0.1+  

080508 A77  0.3-  0.1+    080523 J51  0.4-  0.3+    080625 585  0.1-  0.6-  

080508 J24  0.4+  0.2+    080523 J51  0.1-  0.2+    080625 585  0.5+  1.4-  

080508 J24  0.4+  0.2+    080525 H06 (2.6-  1.3-)   080625 J47  0.7+  0.4+  

080508 809  1.0+  0.0     080525 349  0.7-  0.0     080625 J47  0.4+  0.0   

080508 423  0.3-  0.4-    080525 349  0.8-  0.0     080625 J47  0.2-  0.7-  

080508 423  0.1-  0.3-    080525 945  0.9-  1.0-    080626 E16  0.1+  0.8-  

080509 B59  0.3-  0.2+    080526 945  0.9-  0.2-    080626 E16  0.2+  0.5-  

080509 B59  0.2-  0.0     080526 945  1.7-  0.7-    080627 850  0.5+  1.1+  

080509 H06  0.0   0.3-    080526 945 (2.4-  0.2+)   080627 850  0.5+  1.4-  

080509 H06  0.0   0.4-    080526 945  0.6-  0.2+    080627 850  1.9+  1.1-  

080509 H06  0.2-  0.6-    080526 367  0.4-  0.3-    080627 J38  0.8+  0.5+  

080509 682  0.1+  0.2+    080526 367  0.8-  0.1-    080627 J38  0.8+  0.1+  

080509 682  0.8+  0.3+    080526 367  0.7-  0.3+    080627 J38  0.7-  0.4+  

080509 A97  0.0   0.2-    080526 900  0.7-  0.1-    080627 232  0.2-  0.1-  

